• En España
  • Lista de países
  • Para 7 días
  • Temperatura del agua
  • Mapa Satelital
  • El tiempo en el mapa
  • Informadores
  • user-avatar
    Iniciar sesión

    Tiempo cada hora Yunusovo

    Hoy, 21 Agosto, Martes

    Tiempo Temperatura Precipitaciones Viento Presión Humedad
    00:00 +17°C° 0,1 mm 2 mps 752 mmHg 90%
    01:00 +17°C° 0 mm 2 mps 752 mmHg 91%
    02:00 +17°C° 0 mm 2 mps 752 mmHg 92%
    03:00 +17°C° 0 mm 2 mps 751 mmHg 93%
    04:00 +17°C° 0 mm 2 mps 751 mmHg 93%
    05:00 +18°C° 0 mm 2 mps 751 mmHg 92%
    06:00 +18°C° 0 mm 2 mps 751 mmHg 91%
    07:00 +19°C° 0,1 mm 2 mps 751 mmHg 86%
    08:00 +21°C° 0,1 mm 2 mps 751 mmHg 81%
    09:00 +22°C° 0,1 mm 3 mps 751 mmHg 76%
    10:00 +24°C° 0,2 mm 3 mps 751 mmHg 72%
    11:00 +25°C° 0,2 mm 4 mps 751 mmHg 68%
    12:00 +26°C° 0,2 mm 4 mps 751 mmHg 64%
    13:00 +26°C° 0 mm 4 mps 750 mmHg 63%
    14:00 +27°C° 0 mm 5 mps 750 mmHg 62%
    15:00 +27°C° 0 mm 5 mps 749 mmHg 60%
    16:00 +26°C° 0,2 mm 5 mps 749 mmHg 65%
    17:00 +25°C° 0,2 mm 4 mps 749 mmHg 70%
    18:00 +23°C° 0,2 mm 4 mps 748 mmHg 75%
    19:00 +22°C° 0 mm 4 mps 748 mmHg 77%
    20:00 +21°C° 0 mm 4 mps 748 mmHg 79%
    21:00 +20°C° 0 mm 4 mps 748 mmHg 80%
    22:00 +20°C° 0 mm 5 mps 747 mmHg 78%
    23:00 +19°C° 0 mm 5 mps 747 mmHg 76%

    Mañana, 22 Agosto, Miércoles

    Tiempo Temperatura Precipitaciones Viento Presión Humedad
    00:00 +19°C° 0 mm 5 mps 747 mmHg 73%
    01:00 +19°C° 0 mm 5 mps 746 mmHg 73%
    02:00 +17°C° 0 mm 5 mps 746 mmHg 72%
    03:00 +17°C° 0 mm 5 mps 746 mmHg 72%
    04:00 +16°C° 0,7 mm 5 mps 746 mmHg 76%
    05:00 +16°C° 0,7 mm 5 mps 746 mmHg 79%
    06:00 +16°C° 0,7 mm 5 mps 746 mmHg 83%
    07:00 +17°C° 1,3 mm 4 mps 746 mmHg 86%
    08:00 +17°C° 1,3 mm 4 mps 746 mmHg 89%
    09:00 +17°C° 1,3 mm 4 mps 746 mmHg 92%
    10:00 +17°C° 0,4 mm 4 mps 747 mmHg 89%
    11:00 +17°C° 0,4 mm 3 mps 747 mmHg 85%
    12:00 +17°C° 0,4 mm 3 mps 747 mmHg 82%
    13:00 +18°C° 0,1 mm 3 mps 747 mmHg 75%
    14:00 +19°C° 0,1 mm 3 mps 748 mmHg 67%
    15:00 +20°C° 0,1 mm 3 mps 748 mmHg 60%
    16:00 +19°C° 0,3 mm 3 mps 748 mmHg 66%
    17:00 +18°C° 0,3 mm 3 mps 748 mmHg 71%
    18:00 +17°C° 0,3 mm 3 mps 749 mmHg 77%
    19:00 +16°C° 0,3 mm 3 mps 749 mmHg 80%
    20:00 +13°C° 0,3 mm 4 mps 750 mmHg 84%
    21:00 +12°C° 0,3 mm 4 mps 750 mmHg 88%
    22:00 +12°C° 0,2 mm 4 mps 750 mmHg 88%
    23:00 +11°C° 0,2 mm 4 mps 751 mmHg 89%

    Pasado mañana, 23 Agosto, Jueves

    Tiempo Temperatura Precipitaciones Viento Presión Humedad
    00:00 +11°C° 0,2 mm 4 mps 751 mmHg 90%
    01:00 +10°C° 0 mm 4 mps 751 mmHg 91%
    02:00 +10°C° 0 mm 4 mps 752 mmHg 92%
    03:00 +8°C° 0 mm 4 mps 752 mmHg 93%
    04:00 +10°C° 0 mm 4 mps 753 mmHg 92%
    05:00 +10°C° 0 mm 4 mps 753 mmHg 92%
    06:00 +9°C° 0 mm 5 mps 754 mmHg 91%
    07:00 +10°C° 0 mm 5 mps 754 mmHg 84%
    08:00 +11°C° 0 mm 6 mps 754 mmHg 77%
    09:00 +13°C° 0 mm 6 mps 755 mmHg 70%
    10:00 +14°C° 0 mm 6 mps 755 mmHg 65%
    11:00 +15°C° 0 mm 6 mps 755 mmHg 60%
    12:00 +16°C° 0 mm 6 mps 755 mmHg 55%
    13:00 +16°C° 0 mm 6 mps 755 mmHg 55%
    14:00 +16°C° 0 mm 6 mps 755 mmHg 55%
    15:00 +16°C° 0 mm 6 mps 755 mmHg 55%
    16:00 +16°C° 0 mm 5 mps 755 mmHg 59%
    17:00 +15°C° 0 mm 4 mps 756 mmHg 63%
    18:00 +14°C° 0 mm 4 mps 756 mmHg 67%
    19:00 +13°C° 0 mm 3 mps 756 mmHg 68%
    20:00 +12°C° 0 mm 3 mps 756 mmHg 70%
    21:00 +11°C° 0 mm 3 mps 756 mmHg 71%
    22:00 +11°C° 0 mm 3 mps 756 mmHg 72%
    23:00 +10°C° 0 mm 3 mps 757 mmHg 72%

    24 Agosto, Viernes

    Tiempo Temperatura Precipitaciones Viento Presión Humedad
    00:00 +10°C° 0 mm 3 mps 757 mmHg 73%
    01:00 +10°C° 0 mm 3 mps 757 mmHg 73%
    02:00 +10°C° 0 mm 4 mps 757 mmHg 72%
    03:00 +11°C° 0 mm 4 mps 757 mmHg 72%
    04:00 +11°C° 0,3 mm 3 mps 757 mmHg 76%
    05:00 +11°C° 0,3 mm 3 mps 756 mmHg 80%
    06:00 +11°C° 0,3 mm 3 mps 756 mmHg 84%
    07:00 +11°C° 0,4 mm 3 mps 756 mmHg 85%
    08:00 +12°C° 0,4 mm 4 mps 756 mmHg 86%
    09:00 +12°C° 0,4 mm 4 mps 756 mmHg 87%
    10:00 +13°C° 0 mm 4 mps 756 mmHg 85%
    11:00 +14°C° 0 mm 4 mps 756 mmHg 83%
    12:00 +15°C° 0 mm 5 mps 756 mmHg 81%
    13:00 +16°C° 0 mm 5 mps 756 mmHg 79%
    14:00 +17°C° 0 mm 5 mps 756 mmHg 76%
    15:00 +19°C° 0 mm 5 mps 756 mmHg 73%
    16:00 +19°C° 0 mm 4 mps 756 mmHg 76%
    17:00 +18°C° 0 mm 3 mps 756 mmHg 80%
    18:00 +18°C° 0 mm 3 mps 756 mmHg 83%
    19:00 +17°C° 0 mm 2 mps 756 mmHg 85%
    20:00 +16°C° 0 mm 2 mps 756 mmHg 88%
    21:00 +15°C° 0 mm 2 mps 757 mmHg 90%
    22:00 +15°C° 0 mm 2 mps 757 mmHg 91%
    23:00 +15°C° 0 mm 1 mps 757 mmHg 91%

    25 Agosto, Sábado

    Tiempo Temperatura Precipitaciones Viento Presión Humedad
    00:00 +14°C° 0 mm 1 mps 757 mmHg 92%
    01:00 +14°C° 0 mm 1 mps 757 mmHg 93%
    02:00 +14°C° 0 mm 1 mps 758 mmHg 93%
    03:00 +13°C° 0 mm 1 mps 758 mmHg 94%
    04:00 +14°C° 0 mm 1 mps 758 mmHg 93%
    05:00 +14°C° 0 mm 1 mps 758 mmHg 92%
    06:00 +14°C° 0 mm 1 mps 758 mmHg 92%
    07:00 +16°C° 0 mm 1 mps 759 mmHg 86%
    08:00 +19°C° 0 mm 1 mps 759 mmHg 80%
    09:00 +19°C° 0 mm 2 mps 759 mmHg 73%
    10:00 +20°C° 0 mm 2 mps 759 mmHg 70%
    11:00 +21°C° 0 mm 2 mps 759 mmHg 66%
    12:00 +24°C° 0 mm 2 mps 759 mmHg 63%
    13:00 +24°C° 0 mm 2 mps 758 mmHg 63%
    14:00 +24°C° 0 mm 2 mps 758 mmHg 62%
    15:00 +24°C° 0 mm 2 mps 758 mmHg 62%
    16:00 +24°C° 0 mm 1 mps 758 mmHg 66%
    17:00 +23°C° 0 mm 1 mps 758 mmHg 71%
    18:00 +20°C° 0 mm 0 mps 758 mmHg 75%
    19:00 +19°C° 0 mm 0 mps 758 mmHg 78%
    20:00 +18°C° 0 mm 0 mps 758 mmHg 81%
    21:00 +16°C° 0 mm 0 mps 759 mmHg 84%
    22:00 +16°C° 0 mm 0 mps 759 mmHg 85%
    23:00 +18°C° 0 mm 1 mps 759 mmHg 85%

    26 Agosto, Domingo

    Tiempo Temperatura Precipitaciones Viento Presión Humedad
    00:00 +16°C° 0 mm 1 mps 759 mmHg 86%
    01:00 +16°C° 0 mm 1 mps 759 mmHg 87%
    02:00 +16°C° 0 mm 1 mps 759 mmHg 87%
    03:00 +16°C° 0 mm 1 mps 759 mmHg 88%
    04:00 +16°C° 0 mm 1 mps 759 mmHg 87%
    05:00 +16°C° 0 mm 1 mps 760 mmHg 87%
    06:00 +18°C° 0 mm 1 mps 760 mmHg 87%
    07:00 +19°C° 0 mm 1 mps 760 mmHg 82%
    08:00 +21°C° 0 mm 1 mps 760 mmHg 77%
    09:00 +23°C° 0 mm 1 mps 760 mmHg 71%
    10:00 +24°C° 0 mm 1 mps 760 mmHg 67%
    11:00 +25°C° 0 mm 1 mps 760 mmHg 63%
    12:00 +25°C° 0 mm 2 mps 759 mmHg 59%
    13:00 +26°C° 0 mm 2 mps 759 mmHg 58%
    14:00 +26°C° 0 mm 2 mps 759 mmHg 58%
    15:00 +26°C° 0 mm 2 mps 759 mmHg 57%
    16:00 +25°C° 0 mm 2 mps 759 mmHg 62%
    17:00 +24°C° 0 mm 2 mps 759 mmHg 67%
    18:00 +23°C° 0 mm 2 mps 759 mmHg 72%
    19:00 +21°C° 0 mm 2 mps 759 mmHg 75%
    20:00 +20°C° 0 mm 2 mps 759 mmHg 78%
    21:00 +19°C° 0 mm 2 mps 759 mmHg 81%
    22:00 +18°C° 0 mm 2 mps 759 mmHg 83%
    23:00 +18°C° 0 mm 2 mps 759 mmHg 84%
    Mostrar más